KS4XQ Weather Reports


Display with metric or nautical units.
time (UTC)temp
F
wind
direction
speed
MPH
gust
MPH
rain 1hr
in
rain 24hr
in
rain mn
in
humidity
%
barometer
mb
20260902182607 100 262 0.0 0.0 0.00 0.00 0.00 46 1018.8
20260902182408 99 198 0.0 0.0 0.00 0.00 0.00 48 1018.7
20260902182206 99 263 0.0 0.0 0.00 0.00 0.00 47 1018.7
20260902181806 99 219 0.0 0.0 0.00 0.00 0.00 47 1018.8
20260902181607 99 219 0.0 0.0 0.00 0.00 0.00 45 1018.9
20260902181410 99 222 0.0 0.0 0.00 0.00 0.00 46 1018.9
20260902181206 99 249 0.0 0.0 0.00 0.00 0.00 48 1018.9
20260902181009 99 238 0.0 0.0 0.00 0.00 0.00 46 1018.9
20260902180806 99 293 0.0 0.0 0.00 0.00 0.00 47 1018.9
20260902180606 99 202 0.0 0.0 0.00 0.00 0.00 47 1018.9
20260902180408 99 225 0.0 0.0 0.00 0.00 0.00 47 1019.0
20260902180011 98 169 0.0 0.0 0.00 0.00 0.00 49 1019.0
20260902175806 98 199 0.0 0.0 0.00 0.00 0.00 49 1019.0
20260902175606 98 206 0.0 0.0 0.00 0.00 0.00 46 1018.9
20260902175406 99 215 0.0 0.0 0.00 0.00 0.00 49 1019.0
20260902175206 99 5 0.0 0.0 0.00 0.00 0.00 47 1019.0
20260902175009 99 61 0.0 0.0 0.00 0.00 0.00 49 1019.0
20260902174606 98 202 0.0 0.0 0.00 0.00 0.00 49 1019.0
20260902174406 98 156 0.0 0.0 0.00 0.00 0.00 50 1019.1
20260902174206 98 205 0.0 0.0 0.00 0.00 0.00 50 1019.1
20260902173806 98 256 0.0 0.0 0.00 0.00 0.00 50 1019.1
20260902173606 98 259 0.0 0.0 0.00 0.00 0.00 49 1019.1
20260902173406 98 275 0.0 0.0 0.00 0.00 0.00 49 1019.1
20260902173011 98 275 0.0 0.0 0.00 0.00 0.00 50 1019.2
20260902172806 97 204 0.0 0.0 0.00 0.00 0.00 48 1019.2
20260902172606 97 237 0.0 0.0 0.00 0.00 0.00 49 1019.2
20260902172208 97 234 0.0 0.0 0.00 0.00 0.00 50 1019.3
20260902172008 96 160 0.0 0.0 0.00 0.00 0.00 50 1019.4
20260902171807 96 200 0.0 0.0 0.00 0.00 0.00 52 1019.4
20260902171609 96 232 0.0 0.0 0.00 0.00 0.00 55 1019.4
20260902171406 96 209 0.0 0.0 0.00 0.00 0.00 54 1019.5
20260902171206 95 214 0.0 0.0 0.00 0.00 0.00 55 1019.5
20260902171006 95 112 0.0 0.0 0.00 0.00 0.00 54 1019.5
20260902170807 95 129 0.0 0.0 0.00 0.00 0.00 58 1019.5
20260902170609 94 148 0.0 0.0 0.00 0.00 0.00 58 1019.6
20260902170406 94 236 0.0 0.0 0.00 0.00 0.00 56 1019.6
20260902170206 94 210 0.0 0.0 0.00 0.00 0.00 59 1019.6
20260902170007 94 69 0.0 0.0 0.00 0.00 0.00 58 1019.6
20260902165805 94 71 0.0 0.0 0.00 0.00 0.00 56 1019.6
20260902165405 94 48 0.0 0.0 0.00 0.00 0.00 56 1019.7
20260902165205 94 95 0.0 0.0 0.00 0.00 0.00 58 1019.7
20260902165005 93 63 0.0 0.0 0.00 0.00 0.00 59 1019.7
20260902164805 93 76 0.0 0.0 0.00 0.00 0.00 57 1019.7
20260902164608 93 296 0.0 0.0 0.00 0.00 0.00 59 1019.7
20260902164405 93 134 0.0 0.0 0.00 0.00 0.00 59 1019.7
20260902164205 93 342 0.0 0.0 0.00 0.00 0.00 59 1019.8
20260902163607 92 261 0.0 0.0 0.00 0.00 0.00 59 1019.8
20260902163405 92 290 0.0 0.0 0.00 0.00 0.00 62 1019.8
20260902163208 92 257 0.0 0.0 0.00 0.00 0.00 62 1019.9
20260902163005 92 277 0.0 0.0 0.00 0.00 0.00 61 1019.9
20260902162606 92 265 0.0 0.0 0.00 0.00 0.00 60 1020.0
20260902162407 92 265 0.0 0.0 0.00 0.00 0.00 61 1020.0
20260902162208 92 5 0.0 0.0 0.00 0.00 0.00 62 1020.0
20260902162006 92 5 0.0 0.0 0.00 0.00 0.00 64 1020.1
20260902161606 91 91 0.0 0.0 0.00 0.00 0.00 64 1020.1
20260902161405 91 334 0.0 0.0 0.00 0.00 0.00 64 1020.1
20260902161208 91 334 0.0 0.0 0.00 0.00 0.00 63 1020.1
20260902161005 91 334 0.0 0.0 0.00 0.00 0.00 63 1020.2
20260902160805 91 334 0.0 0.0 0.00 0.00 0.00 65 1020.1
20260902160605 91 334 0.0 0.0 0.00 0.00 0.00 63 1020.1
20260902160209 92 336 0.0 0.0 0.00 0.00 0.00 63 1020.2
20260902160010 92 281 0.0 0.0 0.00 0.00 0.00 63 1020.1
20260902155806 91 236 0.0 0.0 0.00 0.00 0.00 63 1020.2
20260902155608 91 117 0.0 0.0 0.00 0.00 0.00 63 1020.2
20260902155406 91 117 0.0 0.0 0.00 0.00 0.00 64 1020.3
20260902155209 91 355 0.0 0.0 0.00 0.00 0.00 63 1020.4
20260902155006 91 360 0.0 0.0 0.00 0.00 0.00 63 1020.3
20260902154606 91 78 0.0 0.0 0.00 0.00 0.00 64 1020.3
20260902154408 91 191 0.0 0.0 0.00 0.00 0.00 65 1020.3
20260902154209 91 189 0.0 0.0 0.00 0.00 0.00 66 1020.3
20260902153806 91 254 0.0 0.0 0.00 0.00 0.00 65 1020.3
20260902153210 90 254 0.0 0.0 0.00 0.00 0.00 66 1020.4
20260902153006 90 148 0.0 0.0 0.00 0.00 0.00 66 1020.4
20260902152806 89 217 0.0 0.0 0.00 0.00 0.00 67 1020.5
20260902152607 89 25 0.0 0.0 0.00 0.00 0.00 67 1020.4
20260902152406 89 42 0.0 0.0 0.00 0.00 0.00 67 1020.5
20260902151806 88 186 0.0 0.0 0.00 0.00 0.00 69 1020.4
20260902151606 88 115 0.0 0.0 0.00 0.00 0.00 70 1020.4
20260902151209 87 261 0.0 0.0 0.00 0.00 0.00 71 1020.4
20260902151006 87 311 0.0 0.0 0.00 0.00 0.00 71 1020.4
20260902150806 87 295 0.0 0.0 0.00 0.00 0.00 71 1020.5
20260902150606 87 250 0.0 0.0 0.00 0.00 0.00 71 1020.4
20260902150406 86 217 0.0 0.0 0.00 0.00 0.00 72 1020.5
20260902150210 86 273 0.0 0.0 0.00 0.00 0.00 72 1020.4
20260902150008 86 102 0.0 0.0 0.00 0.00 0.00 73 1020.5
20260902145805 85 190 0.0 0.0 0.00 0.00 0.00 71 1020.5
20260902145607 85 83 0.0 0.0 0.00 0.00 0.00 76 1020.4
20260902145405 85 105 0.0 0.0 0.00 0.00 0.00 75 1020.3
20260902145208 84 74 0.0 0.0 0.00 0.00 0.00 77 1020.4
20260902144605 83 290 0.0 0.0 0.00 0.00 0.00 77 1020.2
20260902144405 83 94 0.0 0.0 0.00 0.00 0.00 81 1020.2
20260902144208 83 89 0.0 0.0 0.00 0.00 0.00 81 1020.2
20260902144005 82 348 0.0 0.0 0.00 0.00 0.00 82 1020.2
20260902143805 82 348 0.0 0.0 0.00 0.00 0.00 81 1020.2
20260902143605 81 93 0.0 0.0 0.00 0.00 0.00 82 1020.2
20260902143405 81 59 0.0 0.0 0.00 0.00 0.00 83 1020.2
20260902143005 81 92 0.0 0.0 0.00 0.00 0.00 82 1020.2
20260902142605 80 40 0.0 0.0 0.00 0.00 0.00 84 1020.1
20260902142405 80 78 0.0 0.0 0.00 0.00 0.00 81 1020.1
20260902142208 80 78 0.0 0.0 0.00 0.00 0.00 83 1020.1
20260902142005 80 80 0.0 0.0 0.00 0.00 0.00 86 1020.1
20260902141605 80 17 0.0 0.0 0.00 0.00 0.00 86 1020.1
20260902141405 80 9 0.0 0.0 0.00 0.00 0.00 84 1020.2
20260902141208 80 86 0.0 0.0 0.00 0.00 0.00 86 1020.2
20260902141005 79 99 0.0 0.0 0.00 0.00 0.00 86 1020.2
20260902140605 79 55 0.0 0.0 0.00 0.00 0.00 87 1020.1
20260902140405 79 55 0.0 0.0 0.00 0.00 0.00 86 1020.2
20260902140208 79 288 0.0 0.0 0.00 0.00 0.00 88 1020.2
20260902135807 78 15 0.0 0.0 0.00 0.00 0.00 87 1020.2
20260902135605 78 38 0.0 0.0 0.00 0.00 0.00 88 1020.3
20260902135407 78 38 0.0 0.0 0.00 0.00 0.00 89 1020.2
20260902135005 77 38 0.0 0.0 0.00 0.00 0.00 89 1020.2
20260902134808 77 38 0.0 0.0 0.00 0.00 0.00 88 1020.2
20260902134605 77 110 0.0 0.0 0.00 0.00 0.00 88 1020.2
20260902134405 77 110 0.0 0.0 0.00 0.00 0.00 91 1020.3
20260902134005 76 110 0.0 0.0 0.00 0.00 0.00 91 1020.3
20260902133807 76 110 0.0 0.0 0.00 0.00 0.00 91 1020.3
20260902133605 76 110 0.0 0.0 0.00 0.00 0.00 91 1020.2
20260902133408 76 110 0.0 0.0 0.00 0.00 0.00 92 1020.3
20260902133205 76 106 0.0 0.0 0.00 0.00 0.00 92 1020.2
20260902133007 76 106 0.0 0.0 0.00 0.00 0.00 92 1020.2
20260902132807 75 106 0.0 0.0 0.00 0.00 0.00 92 1020.2
20260902132408 75 106 0.0 0.0 0.00 0.00 0.00 92 1020.2
20260902132205 75 106 0.0 0.0 0.00 0.00 0.00 92 1020.3
20260902131605 75 106 0.0 0.0 0.00 0.00 0.00 93 1020.3
20260902131407 75 106 0.0 0.0 0.00 0.00 0.00 93 1020.3
20260902131205 74 106 0.0 0.0 0.00 0.00 0.00 92 1020.2
20260902131007 74 106 0.0 0.0 0.00 0.00 0.00 93 1020.2
20260902130805 74 106 0.0 0.0 0.00 0.00 0.00 92 1020.3
20260902130605 74 106 0.0 0.0 0.00 0.00 0.00 93 1020.3
20260902130205 74 106 0.0 0.0 0.00 0.00 0.00 93 1020.3
20260902130010 74 106 0.0 0.0 0.00 0.00 0.00 93 1020.3
20260902125805 74 106 0.0 0.0 0.00 0.00 0.00 93 1020.3
20260902125605 74 106 0.0 0.0 0.00 0.00 0.00 93 1020.2
20260902125408 73 106 0.0 0.0 0.00 0.00 0.00 94 1020.2
20260902125005 73 106 0.0 0.0 0.00 0.00 0.00 94 1020.3
20260902124806 73 106 0.0 0.0 0.00 0.00 0.00 93 1020.2
20260902124605 73 106 0.0 0.0 0.00 0.00 0.00 93 1020.2
20260902124407 73 106 0.0 0.0 0.00 0.00 0.00 93 1020.2
20260902124205 73 106 0.0 0.0 0.00 0.00 0.00 93 1020.2
20260902124005 73 106 0.0 0.0 0.00 0.00 0.00 94 1020.2
20260902123805 73 106 0.0 0.0 0.00 0.00 0.00 94 1020.1
20260902123605 73 106 0.0 0.0 0.00 0.00 0.00 94 1020.2
20260902123408 72 80 0.0 0.0 0.00 0.00 0.00 94 1020.1
20260902123205 72 80 0.0 0.0 0.00 0.00 0.00 94 1020.2
20260902123007 72 80 0.0 0.0 0.00 0.00 0.00 94 1020.1
20260902122806 72 80 0.0 0.0 0.00 0.00 0.00 94 1020.2
20260902122605 72 80 0.0 0.0 0.00 0.00 0.00 94 1020.1
20260902122408 72 80 0.0 0.0 0.00 0.00 0.00 94 1020.1
20260902122205 72 80 0.0 0.0 0.00 0.00 0.00 93 1020.1
20260902122008 72 80 0.0 0.0 0.00 0.00 0.00 94 1020.1
20260902121805 72 80 0.0 0.0 0.00 0.00 0.00 94 1020.0
20260902121605 72 80 0.0 0.0 0.00 0.00 0.00 93 1020.0
20260902121407 72 80 0.0 0.0 0.00 0.00 0.00 93 1020.1
20260902121206 72 80 0.0 0.0 0.00 0.00 0.00 94 1020.1
20260902121008 72 80 0.0 0.0 0.00 0.00 0.00 93 1020.0
20260902120805 72 80 0.0 0.0 0.00 0.00 0.00 93 1020.1
20260902120407 72 80 0.0 0.0 0.00 0.00 0.00 93 1020.1
20260902120205 72 80 0.0 0.0 0.00 0.00 0.00 93 1020.1
20260902120010 72 80 0.0 0.0 0.00 0.00 0.00 93 1020.1
20260902115807 72 80 0.0 0.0 0.00 0.00 0.00 93 1020.1
20260902115606 72 80 0.0 0.0 0.00 0.00 0.00 93 1020.1
20260902115007 71 80 0.0 0.0 0.00 0.00 0.00 93 1020.1
20260902114605 71 80 0.0 0.0 0.00 0.00 0.00 93 1020.1
20260902114407 71 80 0.0 0.0 0.00 0.00 0.00 93 1020.0
20260902114205 71 80 0.0 0.0 0.00 0.00 0.00 93 1019.9
20260902114007 71 80 0.0 0.0 0.00 0.00 0.00 93 1019.8
20260902113805 71 80 0.0 0.0 0.00 0.00 0.00 93 1019.7
20260902113407 71 80 0.0 0.0 0.00 0.00 0.00 92 1019.6
20260902113008 71 80 0.0 0.0 0.00 0.00 0.00 92 1019.6
20260902112805 71 80 0.0 0.0 0.00 0.00 0.00 92 1019.7
20260902112406 71 80 0.0 0.0 0.00 0.00 0.00 92 1019.6
20260902112205 71 80 0.0 0.0 0.00 0.00 0.00 92 1019.6
20260902112008 71 80 0.0 0.0 0.00 0.00 0.00 92 1019.5
20260902111808 71 80 0.0 0.0 0.00 0.00 0.00 93 1019.7
20260902111605 71 80 0.0 0.0 0.00 0.00 0.00 93 1019.6
20260902111408 71 80 0.0 0.0 0.00 0.00 0.00 93 1019.7
20260902111205 72 80 0.0 0.0 0.00 0.00 0.00 93 1019.6
20260902111008 72 80 0.0 0.0 0.00 0.00 0.00 93 1019.6
20260902110805 71 80 0.0 0.0 0.00 0.00 0.00 93 1019.6
20260902110605 72 80 0.0 0.0 0.00 0.00 0.00 93 1019.6
20260902110407 71 80 0.0 0.0 0.00 0.00 0.00 92 1019.6
20260902110205 71 80 0.0 0.0 0.00 0.00 0.00 92 1019.6
20260902105806 71 80 0.0 0.0 0.00 0.00 0.00 91 1019.6
20260902105407 71 80 0.0 0.0 0.00 0.00 0.00 91 1019.6
20260902105008 71 80 0.0 0.0 0.00 0.00 0.00 91 1019.6
20260902104805 71 80 0.0 0.0 0.00 0.00 0.00 91 1019.6
20260902104606 72 80 0.0 0.0 0.00 0.00 0.00 91 1019.6
20260902104407 72 80 0.0 0.0 0.00 0.00 0.00 91 1019.6
20260902104206 72 80 0.0 0.0 0.00 0.00 0.00 91 1019.5
20260902103805 72 80 0.0 0.0 0.00 0.00 0.00 91 1019.4
20260902103605 72 80 0.0 0.0 0.00 0.00 0.00 91 1019.4
20260902103408 72 80 0.0 0.0 0.00 0.00 0.00 91 1019.5
20260902103008 72 80 0.0 0.0 0.00 0.00 0.00 91 1019.5
20260902102806 72 80 0.0 0.0 0.00 0.00 0.00 91 1019.5
20260902102605 72 80 0.0 0.0 0.00 0.00 0.00 91 1019.5
20260902102407 72 80 0.0 0.0 0.00 0.00 0.00 91 1019.5
20260902102205 72 80 0.0 0.0 0.00 0.00 0.00 91 1019.4
20260902102007 72 80 0.0 0.0 0.00 0.00 0.00 91 1019.5
20260902101805 72 80 0.0 0.0 0.00 0.00 0.00 91 1019.6
20260902101605 72 80 0.0 0.0 0.00 0.00 0.00 91 1019.5
20260902101205 72 80 0.0 0.0 0.00 0.00 0.00 91 1019.5
20260902101008 72 80 0.0 0.0 0.00 0.00 0.00 91 1019.5
20260902100805 72 80 0.0 0.0 0.00 0.00 0.00 91 1019.5
20260902100605 72 80 0.0 0.0 0.00 0.00 0.00 91 1019.5
20260902100406 72 80 0.0 0.0 0.00 0.00 0.00 91 1019.5
20260902100011 72 80 0.0 0.0 0.00 0.00 0.00 91 1019.6
20260902095805 72 80 0.0 0.0 0.00 0.00 0.00 91 1019.5
20260902095605 72 80 0.0 0.0 0.00 0.00 0.00 91 1019.5
20260902095407 72 80 0.0 0.0 0.00 0.00 0.00 91 1019.4
20260902095205 72 80 0.0 0.0 0.00 0.00 0.00 91 1019.5
20260902095007 72 80 0.0 0.0 0.00 0.00 0.00 92 1019.4
20260902094805 72 80 0.0 0.0 0.00 0.00 0.00 91 1019.3
20260902094605 72 80 0.0 0.0 0.00 0.00 0.00 91 1019.2
20260902094407 72 80 0.0 0.0 0.00 0.00 0.00 91 1019.3
20260902094205 72 80 0.0 0.0 0.00 0.00 0.00 91 1019.2
20260902094007 72 80 0.0 0.0 0.00 0.00 0.00 91 1019.1
20260902093805 72 80 0.0 0.0 0.00 0.00 0.00 91 1019.2
20260902093607 72 80 0.0 0.0 0.00 0.00 0.00 91 1019.1
20260902093406 72 80 0.0 0.0 0.00 0.00 0.00 91 1019.0
20260902093205 72 80 0.0 0.0 0.00 0.00 0.00 91 1019.0
20260902093007 72 80 0.0 0.0 0.00 0.00 0.00 91 1019.0
20260902092805 72 80 0.0 0.0 0.00 0.00 0.00 91 1019.1
20260902092605 72 80 0.0 0.0 0.00 0.00 0.00 91 1019.1
20260902092407 72 80 0.0 0.0 0.00 0.00 0.00 91 1019.0
20260902092205 72 80 0.0 0.0 0.00 0.00 0.00 91 1019.0
20260902091605 72 80 0.0 0.0 0.00 0.00 0.00 91 1019.0
20260902091407 72 80 0.0 0.0 0.00 0.00 0.00 91 1019.0
20260902091205 72 80 0.0 0.0 0.00 0.00 0.00 91 1019.0
20260902091007 72 80 0.0 0.0 0.00 0.00 0.00 91 1019.0
20260902090805 72 80 0.0 0.0 0.00 0.00 0.00 91 1019.0
20260902090605 72 80 0.0 0.0 0.00 0.00 0.00 91 1018.9
20260902090406 72 80 0.0 0.0 0.00 0.00 0.00 91 1018.8
20260902090205 72 80 0.0 0.0 0.00 0.00 0.00 91 1018.9
20260902090010 72 80 0.0 0.0 0.00 0.00 0.00 91 1018.9
20260902085807 72 80 0.0 0.0 0.00 0.00 0.00 91 1018.8
20260902085605 72 80 0.0 0.0 0.00 0.00 0.00 91 1018.9
20260902085406 72 80 0.0 0.0 0.00 0.00 0.00 91 1018.8
20260902085205 72 80 0.0 0.0 0.00 0.00 0.00 91 1018.8
20260902085007 72 80 0.0 0.0 0.00 0.00 0.00 91 1018.9
20260902084805 72 80 0.0 0.0 0.00 0.00 0.00 92 1018.8
20260902084605 72 80 0.0 0.0 0.00 0.00 0.00 91 1018.8
20260902084408 72 80 0.0 0.0 0.00 0.00 0.00 92 1018.8
20260902084205 72 80 0.0 0.0 0.00 0.00 0.00 92 1018.8
20260902084007 72 80 0.0 0.0 0.00 0.00 0.00 91 1018.8
20260902083805 72 80 0.0 0.0 0.00 0.00 0.00 92 1018.8
20260902083607 72 80 0.0 0.0 0.00 0.00 0.00 92 1018.8
20260902083406 72 80 0.0 0.0 0.00 0.00 0.00 91 1018.9
20260902083205 72 80 0.0 0.0 0.00 0.00 0.00 91 1018.8
20260902083007 72 80 0.0 0.0 0.00 0.00 0.00 91 1018.9
20260902082805 72 80 0.0 0.0 0.00 0.00 0.00 91 1018.9
20260902082605 72 80 0.0 0.0 0.00 0.00 0.00 91 1018.8
20260902082406 72 80 0.0 0.0 0.00 0.00 0.00 91 1018.9
20260902082007 72 80 0.0 0.0 0.00 0.00 0.00 90 1018.8
20260902081805 72 80 0.0 0.0 0.00 0.00 0.00 91 1018.7
20260902081605 72 80 0.0 0.0 0.00 0.00 0.00 90 1018.8
20260902081407 72 80 0.0 0.0 0.00 0.00 0.00 90 1018.6
20260902081205 72 80 0.0 0.0 0.00 0.00 0.00 90 1018.7
20260902081007 72 80 0.0 0.0 0.00 0.00 0.00 90 1018.7
20260902080805 72 80 0.0 0.0 0.00 0.00 0.00 90 1018.7
20260902080606 72 80 0.0 0.0 0.00 0.00 0.00 91 1018.8
20260902080405 72 80 0.0 0.0 0.00 0.00 0.00 90 1018.8
20260902080207 72 80 0.0 0.0 0.00 0.00 0.00 90 1018.6
20260902080008 72 80 0.0 0.0 0.00 0.00 0.00 90 1018.6
20260902075806 72 80 0.0 0.0 0.00 0.00 0.00 90 1018.7
20260902075605 72 80 0.0 0.0 0.00 0.00 0.00 90 1018.7
20260902075408 72 80 0.0 0.0 0.00 0.00 0.00 89 1018.6
20260902075006 72 80 0.0 0.0 0.00 0.00 0.00 89 1018.7
20260902074805 72 80 0.0 0.0 0.00 0.00 0.00 89 1018.6
20260902074605 72 80 0.0 0.0 0.00 0.00 0.00 89 1018.6
20260902074407 72 80 0.0 0.0 0.00 0.00 0.00 89 1018.7
20260902074205 72 80 0.0 0.0 0.00 0.00 0.00 89 1018.7
20260902074008 72 80 0.0 0.0 0.00 0.00 0.00 89 1018.7
20260902073805 72 80 0.0 0.0 0.00 0.00 0.00 88 1018.8
20260902073605 72 80 0.0 0.0 0.00 0.00 0.00 88 1018.7
20260902073404 72 80 0.0 0.0 0.00 0.00 0.00 88 1018.8
20260902073205 72 80 0.0 0.0 0.00 0.00 0.00 89 1018.8
20260902072805 72 80 0.0 0.0 0.00 0.00 0.00 89 1018.8
20260902072605 72 80 0.0 0.0 0.00 0.00 0.00 89 1018.8
20260902072404 72 80 0.0 0.0 0.00 0.00 0.00 88 1018.8
20260902072205 73 80 0.0 0.0 0.00 0.00 0.00 88 1018.8
20260902072007 73 80 0.0 0.0 0.00 0.00 0.00 88 1018.8
20260902071608 73 80 0.0 0.0 0.00 0.00 0.00 88 1018.8
20260902071405 73 80 0.0 0.0 0.00 0.00 0.00 88 1018.8
20260902071205 73 80 0.0 0.0 0.00 0.00 0.00 88 1018.8
20260902071005 73 80 0.0 0.0 0.00 0.00 0.00 88 1018.9
20260902070805 73 80 0.0 0.0 0.00 0.00 0.00 87 1018.8
20260902070607 73 80 0.0 0.0 0.00 0.00 0.00 87 1018.8
20260902070405 73 80 0.0 0.0 0.00 0.00 0.00 88 1018.8
20260902070007 73 80 0.0 0.0 0.00 0.00 0.00 88 1018.8
20260902065806 73 80 0.0 0.0 0.00 0.00 0.00 88 1018.8
20260902065606 73 80 0.0 0.0 0.00 0.00 0.00 88 1018.9
20260902065407 73 80 0.0 0.0 0.00 0.00 0.00 88 1018.9
20260902065208 73 80 0.0 0.0 0.00 0.00 0.00 88 1018.9
20260902065005 73 80 0.0 0.0 0.00 0.00 0.00 88 1018.8
20260902064805 73 80 0.0 0.0 0.00 0.00 0.00 88 1018.9
20260902064605 73 80 0.0 0.0 0.00 0.00 0.00 88 1018.8
20260902064405 73 80 0.0 0.0 0.00 0.00 0.00 88 1018.9
20260902064208 73 80 0.0 0.0 0.00 0.00 0.00 88 1019.0
20260902064005 73 80 0.0 0.0 0.00 0.00 0.00 87 1018.9
20260902063805 73 80 0.0 0.0 0.00 0.00 0.00 87 1018.9
20260902063605 73 80 0.0 0.0 0.00 0.00 0.00 88 1018.9
20260902063206 73 80 0.0 0.0 0.00 0.00 0.00 88 1018.9
20260902062809 73 80 0.0 0.0 0.00 0.00 0.00 88 1019.0
20260902062605 73 80 0.0 0.0 0.00 0.00 0.00 88 1019.0
20260902062405 73 80 0.0 0.0 0.00 0.00 0.00 88 1019.0
20260902062205 73 80 0.0 0.0 0.00 0.00 0.00 88 1019.1
20260902061808 73 80 0.0 0.0 0.00 0.00 0.00 88 1019.1
20260902061605 73 80 0.0 0.0 0.00 0.00 0.00 87 1019.0
20260902061405 73 80 0.0 0.0 0.00 0.00 0.00 88 1019.1
20260902061005 73 80 0.0 0.0 0.00 0.00 0.00 87 1019.1
20260902060807 73 80 0.0 0.0 0.00 0.00 0.00 87 1019.1
20260902060605 73 80 0.0 0.0 0.00 0.00 0.00 88 1019.2
20260902060408 73 80 0.0 0.0 0.00 0.00 0.00 87 1019.1
20260902060205 73 80 0.0 0.0 0.00 0.00 0.00 87 1019.1
20260902055804 73 80 0.0 0.0 0.00 0.00 0.00 87 1019.1
20260902055607 73 80 0.0 0.0 0.00 0.00 0.00 86 1019.1
20260902055405 73 80 0.0 0.0 0.00 0.00 0.00 86 1019.0
20260902055205 73 80 0.0 0.0 0.00 0.00 0.00 86 1019.1
20260902054806 73 80 0.0 0.0 0.00 0.00 0.00 85 1019.1
20260902054405 73 80 0.0 0.0 0.00 0.00 0.00 85 1019.1
20260902054204 73 80 0.0 0.0 0.00 0.00 0.00 85 1019.2
20260902054006 73 80 0.0 0.0 0.00 0.00 0.00 85 1019.1
20260902053804 73 80 0.0 0.0 0.00 0.00 0.00 85 1019.1
20260902053405 73 80 0.0 0.0 0.00 0.00 0.00 85 1019.2
20260902053204 73 80 0.0 0.0 0.00 0.00 0.00 85 1019.1
20260902053006 74 80 0.0 0.0 0.00 0.00 0.00 85 1019.1
20260902052804 74 80 0.0 0.0 0.00 0.00 0.00 85 1019.1
20260902052604 74 80 0.0 0.0 0.00 0.00 0.00 85 1019.0
20260902052407 74 80 0.0 0.0 0.00 0.00 0.00 85 1019.0
20260902052204 74 80 0.0 0.0 0.00 0.00 0.00 85 1019.1
20260902052006 74 80 0.0 0.0 0.00 0.00 0.00 86 1019.0
20260902051804 74 80 0.0 0.0 0.00 0.00 0.00 87 1019.0
20260902051605 74 80 0.0 0.0 0.00 0.00 0.00 87 1019.0
20260902051205 74 80 0.0 0.0 0.00 0.00 0.00 84 1019.0
20260902051005 74 80 0.0 0.0 0.00 0.00 0.00 83 1019.0
20260902050805 74 80 0.0 0.0 0.00 0.00 0.00 83 1019.0
20260902050604 74 80 0.0 0.0 0.00 0.00 0.00 83 1018.9
20260902050406 74 80 0.0 0.0 0.00 0.00 0.00 83 1018.9
20260902050204 74 80 0.0 0.0 0.00 0.00 0.00 82 1019.0
20260902050009 74 80 0.0 0.0 0.00 0.00 0.00 82 1018.9
20260902045805 74 80 0.0 0.0 0.00 0.00 0.00 82 1018.9
20260902045607 74 80 0.0 0.0 0.00 0.00 0.00 82 1018.9
20260902045405 74 80 0.0 0.0 0.00 0.00 0.00 82 1018.9
20260902045205 74 80 0.0 0.0 0.00 0.00 0.00 82 1018.9
20260902045008 74 80 0.0 0.0 0.00 0.00 0.00 82 1018.9
20260902044805 74 80 0.0 0.0 0.00 0.00 0.00 83 1018.8
20260902044607 74 80 0.0 0.0 0.00 0.00 0.00 82 1018.9
20260902044405 74 80 0.0 0.0 0.00 0.00 0.00 82 1018.8
20260902044205 74 80 0.0 0.0 0.00 0.00 0.00 82 1018.9
20260902044006 74 80 0.0 0.0 0.00 0.00 0.00 82 1018.8
20260902043807 74 80 0.0 0.0 0.00 0.00 0.00 82 1018.8
20260902043608 74 80 0.0 0.0 0.00 0.00 0.00 82 1018.7
20260902043405 74 80 0.0 0.0 0.00 0.00 0.00 82 1018.8
20260902043205 74 80 0.0 0.0 0.00 0.00 0.00 81 1018.7
20260902043005 74 80 0.0 0.0 0.00 0.00 0.00 81 1018.7
20260902042805 74 80 0.0 0.0 0.00 0.00 0.00 81 1018.8
20260902042608 74 80 0.0 0.0 0.00 0.00 0.00 81 1018.8
20260902042405 75 80 0.0 0.0 0.00 0.00 0.00 81 1018.8
20260902042205 75 80 0.0 0.0 0.00 0.00 0.00 81 1018.8
20260902042005 75 80 0.0 0.0 0.00 0.00 0.00 81 1018.8
20260902041805 75 80 0.0 0.0 0.00 0.00 0.00 81 1018.8
20260902041607 75 80 0.0 0.0 0.00 0.00 0.00 81 1018.8
20260902041205 75 80 0.0 0.0 0.00 0.00 0.00 81 1018.7
20260902041005 75 80 0.0 0.0 0.00 0.00 0.00 81 1018.7
20260902040805 75 80 0.0 0.0 0.00 0.00 0.00 81 1018.6
20260902040406 75 80 0.0 0.0 0.00 0.00 0.00 80 1018.6
20260902040208 75 80 0.0 0.0 0.00 0.00 0.00 80 1018.6
20260902040011 75 80 0.0 0.0 0.00 0.00 0.00 80 1018.6
20260902035809 75 80 0.0 0.0 0.00 0.00 0.00 80 1018.7
20260902035608 75 80 0.0 0.0 0.00 0.00 0.00 80 1018.6
20260902035206 75 80 0.0 0.0 0.00 0.00 0.00 80 1018.8
20260902035007 75 80 0.0 0.0 0.00 0.00 0.00 80 1018.7
20260902034808 75 80 0.0 0.0 0.00 0.00 0.00 80 1018.7
20260902034410 75 80 0.0 0.0 0.00 0.00 0.00 80 1018.7
20260902034207 76 80 0.0 0.0 0.00 0.00 0.00 81 1018.7
20260902034007 76 80 0.0 0.0 0.00 0.00 0.00 80 1018.6
20260902033806 76 80 0.0 0.0 0.00 0.00 0.00 79 1018.7
20260902033607 76 80 0.0 0.0 0.00 0.00 0.00 80 1018.7
20260902033408 76 80 0.0 0.0 0.00 0.00 0.00 79 1018.7
20260902033009 76 80 0.0 0.0 0.00 0.00 0.00 78 1018.7
20260902032807 76 80 0.0 0.0 0.00 0.00 0.00 78 1018.8
20260902032607 76 80 0.0 0.0 0.00 0.00 0.00 78 1018.8
20260902032408 76 80 0.0 0.0 0.00 0.00 0.00 78 1018.6
20260902032206 76 80 0.0 0.0 0.00 0.00 0.00 78 1018.7
20260902032009 76 80 0.0 0.0 0.00 0.00 0.00 77 1018.7
20260902031807 76 80 0.0 0.0 0.00 0.00 0.00 77 1018.8
20260902031608 76 80 0.0 0.0 0.00 0.00 0.00 78 1018.6
20260902031409 76 80 0.0 0.0 0.00 0.00 0.00 78 1018.8
20260902031208 76 80 0.0 0.0 0.00 0.00 0.00 78 1018.8
20260902031008 77 80 0.0 0.0 0.00 0.00 0.00 78 1018.9
20260902030808 77 80 0.0 0.0 0.00 0.00 0.00 78 1018.9
20260902030607 77 80 0.0 0.0 0.00 0.00 0.00 77 1018.9
20260902030207 77 80 0.0 0.0 0.00 0.00 0.00 77 1018.9
20260902030011 77 80 0.0 0.0 0.00 0.00 0.00 77 1018.8
20260902025807 77 80 0.0 0.0 0.00 0.00 0.00 77 1018.8
20260902025607 77 80 0.0 0.0 0.00 0.00 0.00 77 1018.9
20260902025409 77 80 0.0 0.0 0.00 0.00 0.00 77 1018.8
20260902025207 77 80 0.0 0.0 0.00 0.00 0.00 77 1018.8
20260902025006 77 80 0.0 0.0 0.00 0.00 0.00 77 1018.7
20260902024807 77 80 0.0 0.0 0.00 0.00 0.00 76 1018.7
20260902024606 77 80 0.0 0.0 0.00 0.00 0.00 76 1018.7
20260902024410 77 80 0.0 0.0 0.00 0.00 0.00 76 1018.8
20260902024207 77 80 0.0 0.0 0.00 0.00 0.00 76 1018.8
20260902024006 77 80 0.0 0.0 0.00 0.00 0.00 76 1018.9
20260902023807 78 80 0.0 0.0 0.00 0.00 0.00 76 1018.9
20260902023408 78 80 0.0 0.0 0.00 0.00 0.00 76 1018.9
20260902023207 78 80 0.0 0.0 0.00 0.00 0.00 76 1018.8
20260902023009 78 80 0.0 0.0 0.00 0.00 0.00 76 1018.7
20260902022607 78 80 0.0 0.0 0.00 0.00 0.00 76 1018.8
20260902022408 78 80 0.0 0.0 0.00 0.00 0.00 76 1018.8
20260902022207 78 80 0.0 0.0 0.00 0.00 0.00 76 1018.8
20260902022009 78 80 0.0 0.0 0.00 0.00 0.00 76 1018.8
20260902021807 78 80 0.0 0.0 0.00 0.00 0.00 76 1018.8
20260902021607 78 80 0.0 0.0 0.00 0.00 0.00 76 1018.6
20260902021408 78 80 0.0 0.0 0.00 0.00 0.00 75 1018.7
20260902021207 79 80 0.0 0.0 0.00 0.00 0.00 74 1018.6
20260902020607 79 80 0.0 0.0 0.00 0.00 0.00 74 1018.6
20260902020409 79 80 0.0 0.0 0.00 0.00 0.00 74 1018.5
20260902020207 79 80 0.0 0.0 0.00 0.00 0.00 74 1018.6
20260902015807 79 80 0.0 0.0 0.00 0.00 0.00 74 1018.5
20260902015609 79 80 0.0 0.0 0.00 0.00 0.00 73 1018.5
20260902015408 79 80 0.0 0.0 0.00 0.00 0.00 73 1018.6
20260902015207 79 80 0.0 0.0 0.00 0.00 0.00 73 1018.5
20260902015009 80 80 0.0 0.0 0.00 0.00 0.00 73 1018.5
20260902014607 80 80 0.0 0.0 0.00 0.00 0.00 73 1018.5
20260902014409 80 80 0.0 0.0 0.00 0.00 0.00 73 1018.5
20260902014206 80 80 0.0 0.0 0.00 0.00 0.00 73 1018.4
20260902014009 80 80 0.0 0.0 0.00 0.00 0.00 73 1018.5
20260902013808 80 80 0.0 0.0 0.00 0.00 0.00 73 1018.4
20260902013607 80 80 0.0 0.0 0.00 0.00 0.00 73 1018.4
20260902013009 80 80 0.0 0.0 0.00 0.00 0.00 73 1018.6
20260902012807 81 80 0.0 0.0 0.00 0.00 0.00 73 1018.5
20260902012607 81 80 0.0 0.0 0.00 0.00 0.00 73 1018.5
20260902012410 81 80 0.0 0.0 0.00 0.00 0.00 73 1018.5
20260902012207 81 80 0.0 0.0 0.00 0.00 0.00 73 1018.4
20260902012009 81 80 0.0 0.0 0.00 0.00 0.00 73 1018.4
20260902011809 81 80 0.0 0.0 0.00 0.00 0.00 73 1018.4
20260902011607 81 80 0.0 0.0 0.00 0.00 0.00 73 1018.3
20260902011207 81 80 0.0 0.0 0.00 0.00 0.00 72 1018.3
20260902011009 81 80 0.0 0.0 0.00 0.00 0.00 71 1018.3
20260902010607 82 80 0.0 0.0 0.00 0.00 0.00 71 1018.2
20260902010409 82 80 0.0 0.0 0.00 0.00 0.00 71 1018.2
20260902010207 82 80 0.0 0.0 0.00 0.00 0.00 71 1018.3
20260902010012 82 80 0.0 0.0 0.00 0.00 0.00 71 1018.2
20260902005807 82 80 0.0 0.0 0.00 0.00 0.00 71 1018.2
20260902005607 82 80 0.0 0.0 0.00 0.00 0.00 70 1018.1
20260902005409 82 80 0.0 0.0 0.00 0.00 0.00 69 1018.2
20260902005207 83 80 0.0 0.0 0.00 0.00 0.00 69 1018.2
20260902005009 83 80 0.0 0.0 0.00 0.00 0.00 69 1018.1
20260902004807 83 80 0.0 0.0 0.00 0.00 0.00 69 1018.1
20260902004607 83 80 0.0 0.0 0.00 0.00 0.00 70 1018.1
20260902004410 83 80 0.0 0.0 0.00 0.00 0.00 70 1018.1
20260902004207 83 80 0.0 0.0 0.00 0.00 0.00 70 1018.1
20260902004009 83 80 0.0 0.0 0.00 0.00 0.00 69 1018.2
20260902003808 83 80 0.0 0.0 0.00 0.00 0.00 69 1018.2
20260902003607 83 80 0.0 0.0 0.00 0.00 0.00 68 1018.3
20260902003409 84 80 0.0 0.0 0.00 0.00 0.00 68 1018.2
20260902003207 84 80 0.0 0.0 0.00 0.00 0.00 67 1018.2
20260902003009 84 80 0.0 0.0 0.00 0.00 0.00 67 1018.2
20260902002807 84 80 0.0 0.0 0.00 0.00 0.00 67 1018.2
20260902002607 84 80 0.0 0.0 0.00 0.00 0.00 67 1018.2
20260902002009 85 80 0.0 0.0 0.00 0.00 0.00 67 1018.1
20260902001807 85 80 0.0 0.0 0.00 0.00 0.00 67 1018.1
20260902001607 85 80 0.0 0.0 0.00 0.00 0.00 68 1018.1
20260902001408 85 80 0.0 0.0 0.00 0.00 0.00 68 1018.0
20260902001207 85 80 0.0 0.0 0.00 0.00 0.00 66 1018.0
20260902001009 85 80 0.0 0.0 0.00 0.00 0.00 66 1018.0
20260902000807 85 80 0.0 0.0 0.00 0.00 0.00 67 1018.1
20260902000409 86 80 0.0 0.0 0.00 0.00 0.00 66 1018.0
20260901235807 86 80 0.0 0.0 0.00 0.00 0.00 64 1018.1
20260901235408 86 80 0.0 0.0 0.00 0.00 0.00 64 1018.1
20260901235009 87 80 0.0 0.0 0.00 0.00 0.00 62 1018.1
20260901234807 87 80 0.0 0.0 0.00 0.00 0.00 62 1018.0
20260901234408 87 80 0.0 0.0 0.00 0.00 0.00 62 1018.1
20260901234207 87 80 0.0 0.0 0.00 0.00 0.00 62 1018.1
20260901234009 87 80 0.0 0.0 0.00 0.00 0.00 61 1018.1
20260901233408 88 80 0.0 0.0 0.00 0.00 0.00 62 1018.1
20260901233207 88 80 0.0 0.0 0.00 0.00 0.00 62 1018.1
20260901233009 88 80 0.0 0.0 0.00 0.00 0.00 61 1018.1
20260901232807 88 80 0.0 0.0 0.00 0.00 0.00 60 1018.1
20260901232607 88 80 0.0 0.0 0.00 0.00 0.00 59 1018.2
20260901232408 88 80 0.0 0.0 0.00 0.00 0.00 60 1018.1
20260901232207 88 80 0.0 0.0 0.00 0.00 0.00 60 1018.2
20260901231807 89 80 0.0 0.0 0.00 0.00 0.00 59 1018.1
20260901231607 89 80 0.0 0.0 0.00 0.00 0.00 59 1018.1
20260901231409 89 80 0.0 0.0 0.00 0.00 0.00 60 1018.1
20260901231207 89 80 0.0 0.0 0.00 0.00 0.00 58 1018.2
20260901231009 89 80 0.0 0.0 0.00 0.00 0.00 57 1018.2
20260901230807 89 84 0.0 0.0 0.00 0.00 0.00 58 1018.2
20260901230607 90 84 0.0 0.0 0.00 0.00 0.00 58 1018.1
20260901230408 90 84 0.0 0.0 0.00 0.00 0.00 57 1018.2
20260901230207 90 84 0.0 0.0 0.00 0.00 0.00 57 1018.2
20260901225807 90 84 0.0 0.0 0.00 0.00 0.00 57 1018.1
20260901225607 90 84 0.0 0.0 0.00 0.00 0.00 54 1018.1
20260901225207 91 80 0.0 0.0 0.00 0.00 0.00 57 1018.1
20260901225007 91 80 0.0 0.0 0.00 0.00 0.00 57 1018.1
20260901224808 91 80 0.0 0.0 0.00 0.00 0.00 57 1018.1
20260901224607 91 80 0.0 0.0 0.00 0.00 0.00 57 1018.1
20260901224410 91 80 0.0 0.0 0.00 0.00 0.00 57 1018.1
20260901224206 91 80 0.0 0.0 0.00 0.00 0.00 57 1018.0
20260901224007 91 80 0.0 0.0 0.00 0.00 0.00 57 1018.0
20260901223807 92 55 0.0 0.0 0.00 0.00 0.00 57 1018.0
20260901223607 92 55 0.0 0.0 0.00 0.00 0.00 57 1018.0
20260901223408 92 55 0.0 0.0 0.00 0.00 0.00 56 1018.0
20260901223207 92 55 0.0 0.0 0.00 0.00 0.00 57 1018.0
20260901223009 92 79 0.0 0.0 0.00 0.00 0.00 55 1018.0
20260901222807 92 182 0.0 0.0 0.00 0.00 0.00 56 1018.0
20260901222608 92 182 0.0 0.0 0.00 0.00 0.00 57 1018.0
20260901222408 92 182 0.0 0.0 0.00 0.00 0.00 56 1018.0
20260901222207 92 182 0.0 0.0 0.00 0.00 0.00 56 1017.9
20260901222009 92 182 0.0 0.0 0.00 0.00 0.00 56 1017.9
20260901221807 92 182 0.0 0.0 0.00 0.00 0.00 56 1017.9
20260901221606 92 182 0.0 0.0 0.00 0.00 0.00 55 1017.9
20260901221010 92 159 0.0 0.0 0.00 0.00 0.00 55 1017.8
20260901220807 92 159 0.0 0.0 0.00 0.00 0.00 54 1017.8
20260901220607 92 128 0.0 0.0 0.00 0.00 0.00 53 1017.8
20260901220207 92 49 0.0 0.0 0.00 0.00 0.00 52 1017.8
20260901220012 92 234 0.0 0.0 0.00 0.00 0.00 54 1017.8
20260901215809 92 235 0.0 0.0 0.00 0.00 0.00 52 1017.9
20260901215408 93 73 0.0 0.0 0.00 0.00 0.00 55 1017.8
20260901215206 93 79 0.0 0.0 0.00 0.00 0.00 53 1017.8
20260901215009 93 79 0.0 0.0 0.00 0.00 0.00 56 1017.8
20260901214807 93 126 0.0 0.0 0.00 0.00 0.00 54 1017.8
20260901214606 93 194 0.0 0.0 0.00 0.00 0.00 56 1017.7
20260901214408 93 194 0.0 0.0 0.00 0.00 0.00 55 1017.8
20260901214207 93 194 0.0 0.0 0.00 0.00 0.00 55 1017.8
20260901214009 93 195 0.0 0.0 0.00 0.00 0.00 53 1017.8
20260901213807 93 189 0.0 0.0 0.00 0.00 0.00 53 1017.8
20260901213607 93 189 0.0 0.0 0.00 0.00 0.00 52 1017.8
20260901213207 93 350 0.0 0.0 0.00 0.00 0.00 53 1017.8
20260901213009 93 5 0.0 0.0 0.00 0.00 0.00 52 1017.8
20260901212807 93 5 0.0 0.0 0.00 0.00 0.00 54 1017.8
20260901212608 93 5 0.0 0.0 0.00 0.00 0.00 51 1017.8
20260901212407 93 5 0.0 0.0 0.00 0.00 0.00 51 1017.8
20260901212207 93 347 0.0 0.0 0.00 0.00 0.00 50 1017.8
20260901212010 93 52 0.0 0.0 0.00 0.00 0.00 51 1017.9
20260901211807 93 79 0.0 0.0 0.00 0.00 0.00 51 1017.9
20260901211609 93 69 0.0 0.0 0.00 0.00 0.00 52 1017.9
20260901211407 93 331 0.0 0.0 0.00 0.00 0.00 52 1017.9
20260901211206 93 277 0.0 0.0 0.00 0.00 0.00 51 1017.8
20260901210608 94 346 0.0 0.0 0.00 0.00 0.00 51 1017.8
20260901210407 94 24 0.0 0.0 0.00 0.00 0.00 52 1017.9
20260901210209 94 69 0.0 0.0 0.00 0.00 0.00 51 1017.9
20260901210008 94 276 0.0 0.0 0.00 0.00 0.00 51 1017.9
20260901205807 94 276 0.0 0.0 0.00 0.00 0.00 50 1018.0
20260901205608 94 276 0.0 0.0 0.00 0.00 0.00 49 1017.9
20260901205407 94 276 0.0 0.0 0.00 0.00 0.00 49 1017.9
20260901205214 95 246 0.0 0.0 0.00 0.00 0.00 48 1017.9
20260901205008 95 290 0.0 0.0 0.00 0.00 0.00 49 1017.9
20260901204407 95 140 0.0 0.0 0.00 0.00 0.00 49 1018.0
20260901204210 96 122 0.0 0.0 0.00 0.00 0.00 50 1018.0
20260901204007 96 122 0.0 0.0 0.00 0.00 0.00 50 1018.1
20260901203807 96 17 0.0 0.0 0.00 0.00 0.00 47 1018.0
20260901203407 96 55 0.0 0.0 0.00 0.00 0.00 47 1018.1
20260901203209 96 67 0.0 0.0 0.00 0.00 0.00 48 1018.1
20260901203006 96 211 0.0 0.0 0.00 0.00 0.00 48 1018.1
20260901202808 96 125 0.0 0.0 0.00 0.00 0.00 48 1018.1
20260901202406 96 355 0.0 0.0 0.00 0.00 0.00 46 1018.1
20260901202208 96 147 0.0 0.0 0.00 0.00 0.00 46 1018.1
20260901202007 96 147 0.0 0.0 0.00 0.00 0.00 45 1018.1
20260901201808 97 147 0.0 0.0 0.00 0.00 0.00 45 1018.0
20260901201607 97 145 0.0 0.0 0.00 0.00 0.00 43 1018.1
20260901201407 97 67 0.0 0.0 0.00 0.00 0.00 48 1018.0
20260901201210 97 92 0.0 0.0 0.00 0.00 0.00 47 1018.1
20260901201007 97 92 0.0 0.0 0.00 0.00 0.00 45 1018.1
20260901200809 97 189 0.0 0.0 0.00 0.00 0.00 45 1018.1
20260901200607 97 155 0.0 0.0 0.00 0.00 0.00 46 1018.1
20260901200406 97 128 0.0 0.0 0.00 0.00 0.00 45 1018.2
20260901200207 97 78 0.0 0.0 0.00 0.00 0.00 45 1018.2
20260901200009 97 73 0.0 0.0 0.00 0.00 0.00 46 1018.2
20260901195407 96 85 0.0 0.0 0.00 0.00 0.00 47 1018.3
20260901195207 96 107 0.0 0.0 0.00 0.00 0.00 46 1018.3
20260901195007 96 95 0.0 0.0 0.00 0.00 0.00 45 1018.4
20260901194809 96 82 0.0 0.0 0.00 0.00 0.00 48 1018.4
20260901194607 96 14 0.0 0.0 0.00 0.00 0.00 45 1018.4
20260901194407 96 184 0.0 0.0 0.00 0.00 0.00 48 1018.5
20260901194207 96 188 0.0 0.0 0.00 0.00 0.00 46 1018.4
20260901193808 96 337 0.0 0.0 0.00 0.00 0.00 45 1018.4
20260901193607 97 337 0.0 0.0 0.00 0.00 0.00 48 1018.5
20260901193409 97 320 0.0 0.0 0.00 0.00 0.00 48 1018.5
20260901193207 96 194 0.0 0.0 0.00 0.00 0.00 47 1018.6
20260901193006 96 169 0.0 0.0 0.00 0.00 0.00 48 1018.6
20260901192807 96 169 0.0 0.0 0.00 0.00 0.00 48 1018.7
20260901192607 96 190 0.0 0.0 0.00 0.00 0.00 47 1018.7
20260901192410 96 355 0.0 0.0 0.00 0.00 0.00 50 1018.7
20260901192206 96 148 0.0 0.0 0.00 0.00 0.00 51 1018.7
20260901192007 96 49 0.0 0.0 0.00 0.00 0.00 53 1018.7
20260901191607 95 50 0.0 0.0 0.00 0.00 0.00 52 1018.7
20260901191408 95 330 0.0 0.0 0.00 0.00 0.00 53 1018.6
20260901191207 95 123 0.0 0.0 0.00 0.00 0.00 52 1018.6
20260901191009 95 219 0.0 0.0 0.00 0.00 0.00 51 1018.7
20260901190808 95 216 0.0 0.0 0.00 0.00 0.00 52 1018.8
20260901190607 94 199 0.0 0.0 0.00 0.00 0.00 51 1018.8
20260901190206 94 315 0.0 0.0 0.00 0.00 0.00 50 1018.8
20260901190011 94 5 0.0 0.0 0.00 0.00 0.00 48 1018.8
20260901185806 94 339 0.0 0.0 0.00 0.00 0.00 52 1018.9
20260901185607 94 339 0.0 0.0 0.00 0.00 0.00 52 1018.9
20260901185206 94 317 0.0 0.0 0.00 0.00 0.00 55 1018.9
20260901185005 94 334 0.0 0.0 0.00 0.00 0.00 51 1018.9
20260901184806 95 148 0.0 0.0 0.00 0.00 0.00 50 1019.1
20260901184606 95 5 0.0 0.0 0.00 0.00 0.00 51 1019.0
20260901184408 95 5 0.0 0.0 0.00 0.00 0.00 51 1019.0
20260901184206 96 51 0.0 0.0 0.00 0.00 0.00 51 1019.1
20260901184006 96 51 0.0 0.0 0.00 0.00 0.00 54 1019.0
20260901183805 95 119 0.0 0.0 0.00 0.00 0.00 56 1019.1
20260901183606 95 192 0.0 0.0 0.00 0.00 0.00 50 1019.0
20260901183407 95 278 0.0 0.0 0.00 0.00 0.00 50 1019.1
20260901183205 95 124 0.0 0.0 0.00 0.00 0.00 49 1019.1
20260901183008 95 62 0.0 0.0 0.00 0.00 0.00 49 1019.2
20260901182805 96 317 0.0 0.0 0.00 0.00 0.00 53 1019.2